,,PA_Meas_PMT16A,,PR_Meas_QMR101_102,,RH_Meas_QMH101,,SR_Meas_QMS101,,TA_Meas_QMH101,,GenWind,,GenWind,
time,status,PA,status,PR,status,RH,status,SR,status,TA,status,DirAvg,status,SpdAvg,
2010-09-05, 00:00:04,VALID,919.091,VALID,0,VALID,96.7716,VALID,0.107441,VALID,19.5843,VALID,10,VALID,1.15547,
2010-09-05, 00:01:04,VALID,919.039,VALID,0,VALID,96.8021,VALID,0.107441,VALID,19.5828,VALID,10,VALID,1.49375,
2010-09-05, 00:02:04,VALID,919.08,VALID,0,VALID,96.7869,VALID,0,VALID,19.5633,VALID,26,VALID,0.986719,
2010-09-05, 00:03:04,VALID,919.029,VALID,0,VALID,96.7869,VALID,0,VALID,19.5648,VALID,26,VALID,1.52773,
2010-09-05, 00:04:04,VALID,919.016,VALID,0,VALID,96.8631,VALID,0.107441,VALID,19.5843,VALID,32,VALID,1.53906,
2010-09-05, 00:05:04,VALID,919.069,VALID,0,VALID,96.8555,VALID,0.107441,VALID,19.5633,VALID,11,VALID,1.91094,
2010-09-05, 00:06:04,VALID,919.058,VALID,0,VALID,96.8784,VALID,0.107441,VALID,19.5633,VALID,14,VALID,1.66055,
2010-09-05, 00:07:04,VALID,919.083,VALID,0,VALID,96.8784,VALID,0.107441,VALID,19.5843,VALID,14,VALID,1.23594,
2010-09-05, 00:08:04,VALID,919.079,VALID,0.2,VALID,96.947,VALID,0.107441,VALID,19.5828,VALID,14,VALID,0.663672,
2010-09-05, 00:09:04,VALID,919.093,VALID,0,VALID,96.9317,VALID,0,VALID,19.5633,VALID,14,VALID,0.598047,
2010-09-05, 00:10:04,VALID,919.069,VALID,0,VALID,96.9165,VALID,0.107441,VALID,19.5843,VALID,14,VALID,0.853516,
2010-09-05, 00:11:04,VALID,919.048,VALID,0,VALID,96.9241,VALID,0,VALID,19.5843,VALID,14,VALID,0.760547,
2010-09-05, 00:12:04,VALID,919.011,VALID,0,VALID,96.9622,VALID,0.107441,VALID,19.6038,VALID,14,VALID,0.385156,
2010-09-05, 00:13:04,VALID,919.008,VALID,0,VALID,96.9622,VALID,0.107441,VALID,19.6038,VALID,15,VALID,0.44375,
2010-09-05, 00:14:04,VALID,919.002,VALID,0,VALID,97.0003,VALID,0,VALID,19.6233,VALID,14,VALID,0.0664063,
2010-09-05, 00:15:04,VALID,919.007,VALID,0,VALID,96.9317,VALID,0,VALID,19.6038,VALID,14,VALID,0.837891,
2010-09-05, 00:16:04,VALID,918.981,VALID,0,VALID,96.9317,VALID,0,VALID,19.5843,VALID,14,VALID,0.43125,
2010-09-05, 00:17:04,VALID,918.966,VALID,0,VALID,97.0003,VALID,0.107441,VALID,19.6023,VALID,14,VALID,0.046875,
2010-09-05, 00:18:04,VALID,918.949,VALID,0,VALID,96.9927,VALID,0,VALID,19.6023,VALID,14,VALID,0.254687,
2010-09-05, 00:19:04,VALID,918.929,VALID,0,VALID,97.0003,VALID,0,VALID,19.6038,VALID,14,VALID,0.230859,
2010-09-05, 00:20:04,VALID,918.91,VALID,0,VALID,96.9775,VALID,0,VALID,19.5843,VALID,14,VALID,0.0238281,
2010-09-05, 00:21:04,VALID,918.888,VALID,0,VALID,97.0003,VALID,0,VALID,19.6038,VALID,14,VALID,0.620703,
2010-09-05, 00:22:04,VALID,918.887,VALID,0.2,VALID,96.9851,VALID,0,VALID,19.5828,VALID,14,VALID,0.859375,
2010-09-05, 00:23:04,VALID,918.842,VALID,0,VALID,97.0232,VALID,0.107441,VALID,19.6038,VALID,14,VALID,0.710547,
2010-09-05, 00:24:04,VALID,918.83,VALID,0,VALID,96.9927,VALID,0,VALID,19.5648,VALID,14,VALID,0.5125,
2010-09-05, 00:25:04,VALID,918.835,VALID,0,VALID,96.9546,VALID,0,VALID,19.5453,VALID,14,VALID,0.253125,
2010-09-05, 00:26:04,VALID,918.805,VALID,0,VALID,97.008,VALID,0,VALID,19.5648,VALID,14,VALID,0.364062,
2010-09-05, 00:27:04,VALID,918.804,VALID,0,VALID,97.0156,VALID,0,VALID,19.5453,VALID,14,VALID,0.307031,
2010-09-05, 00:28:04,VALID,918.774,VALID,0,VALID,97.0156,VALID,0,VALID,19.5453,VALID,14,VALID,0.439844,
2010-09-05, 00:29:04,VALID,918.792,VALID,0,VALID,97.008,VALID,0,VALID,19.5648,VALID,14,VALID,0.233984,
2010-09-05, 00:30:04,VALID,918.803,VALID,0.2,VALID,97.0308,VALID,0,VALID,19.5633,VALID,14,VALID,0,
2010-09-05, 00:31:04,VALID,918.795,VALID,0,VALID,97.0308,VALID,0,VALID,19.5843,VALID,14,VALID,0,
2010-09-05, 00:32:04,VALID,918.814,VALID,0,VALID,97.0232,VALID,0.107441,VALID,19.5633,VALID,14,VALID,0,
2010-09-05, 00:33:04,VALID,918.797,VALID,0,VALID,97.0308,VALID,0.107441,VALID,19.5648,VALID,14,VALID,0,
2010-09-05, 00:34:04,VALID,918.793,VALID,0,VALID,97.0385,VALID,0,VALID,19.5648,VALID,14,VALID,0,
2010-09-05, 00:35:04,VALID,918.748,VALID,0,VALID,97.0461,VALID,0,VALID,19.5258,VALID,14,VALID,0.253516,
2010-09-05, 00:36:04,VALID,918.733,VALID,0,VALID,97.0385,VALID,0,VALID,19.5063,VALID,14,VALID,0.283984,
2010-09-05, 00:37:04,VALID,918.728,VALID,0,VALID,97.0385,VALID,0,VALID,19.5063,VALID,14,VALID,0.360547,
2010-09-05, 00:38:04,VALID,918.689,VALID,0,VALID,97.0308,VALID,0.107441,VALID,19.4463,VALID,14,VALID,0.425781,
2010-09-05, 00:39:04,VALID,918.696,VALID,0,VALID,97.0308,VALID,0.107441,VALID,19.4868,VALID,14,VALID,0.299609,
2010-09-05, 00:40:04,VALID,918.648,VALID,0,VALID,97.0461,VALID,0,VALID,19.5063,VALID,14,VALID,0.0542969,
2010-09-05, 00:41:04,VALID,918.604,VALID,0,VALID,97.0385,VALID,0,VALID,19.5078,VALID,14,VALID,0.219141,
2010-09-05, 00:42:04,VALID,918.6,VALID,0,VALID,97.0232,VALID,0,VALID,19.5273,VALID,14,VALID,0.362891,
2010-09-05, 00:43:04,VALID,918.538,VALID,0,VALID,97.0461,VALID,0,VALID,19.4688,VALID,14,VALID,0.5125,
2010-09-05, 00:44:04,VALID,918.556,VALID,0,VALID,97.0308,VALID,0,VALID,19.4298,VALID,14,VALID,0.607813,
2010-09-05, 00:45:04,VALID,918.501,VALID,0,VALID,97.0156,VALID,0,VALID,19.4298,VALID,14,VALID,0.575,
2010-09-05, 00:46:04,VALID,918.471,VALID,0,VALID,97.0156,VALID,0,VALID,19.4103,VALID,14,VALID,0.557813,
2010-09-05, 00:47:04,VALID,918.457,VALID,0,VALID,96.9698,VALID,0,VALID,19.4298,VALID,14,VALID,0.428906,
2010-09-05, 00:48:04,VALID,918.432,VALID,0,VALID,96.9698,VALID,0,VALID,19.4103,VALID,14,VALID,0.263281,
2010-09-05, 00:49:04,VALID,918.412,VALID,0,VALID,97.008,VALID,0,VALID,19.4493,VALID,14,VALID,0.177344,
2010-09-05, 00:50:04,VALID,918.403,VALID,0,VALID,97.0156,VALID,0,VALID,19.4283,VALID,14,VALID,0.108203,
2010-09-05, 00:51:04,VALID,918.38,VALID,0,VALID,97.008,VALID,0,VALID,19.4688,VALID,14,VALID,0.303906,
2010-09-05, 00:52:04,VALID,918.372,VALID,0,VALID,96.9698,VALID,0,VALID,19.4688,VALID,14,VALID,0.377344,
2010-09-05, 00:53:04,VALID,918.351,VALID,0,VALID,96.9546,VALID,0,VALID,19.4493,VALID,14,VALID,0.334375,
2010-09-05, 00:54:04,VALID,918.339,VALID,0,VALID,96.9927,VALID,0,VALID,19.4283,VALID,15,VALID,0.0910156,
2010-09-05, 00:55:04,VALID,918.314,VALID,0,VALID,96.9775,VALID,0,VALID,19.4493,VALID,14,VALID,0,
2010-09-05, 00:56:04,VALID,918.296,VALID,0,VALID,97.0003,VALID,0,VALID,19.4673,VALID,14,VALID,0,
2010-09-05, 00:57:04,VALID,918.241,VALID,0,VALID,97.008,VALID,0,VALID,19.5063,VALID,14,VALID,0,
2010-09-05, 00:58:04,VALID,918.218,VALID,0.2,VALID,97.0003,VALID,0,VALID,19.4673,VALID,15,VALID,0,
2010-09-05, 00:59:04,VALID,918.185,VALID,0,VALID,96.9927,VALID,0.107441,VALID,19.5063,VALID,14,VALID,0.566016,
2010-09-05, 01:00:04,VALID,918.209,VALID,0,VALID,96.947,VALID,0,VALID,19.5078,VALID,14,VALID,0.493359,
2010-09-05, 01:01:04,VALID,918.197,VALID,0,VALID,96.9394,VALID,0.107441,VALID,19.4673,VALID,14,VALID,0.478516,
2010-09-05, 01:02:04,VALID,918.22,VALID,0,VALID,96.9241,VALID,0,VALID,19.4868,VALID,15,VALID,0.478125,
2010-09-05, 01:03:04,VALID,918.222,VALID,0,VALID,96.9394,VALID,0,VALID,19.4868,VALID,14,VALID,0.281641,
2010-09-05, 01:04:04,VALID,918.239,VALID,0,VALID,96.947,VALID,0,VALID,19.5063,VALID,14,VALID,0.111719,
2010-09-05, 01:05:04,VALID,918.2,VALID,0,VALID,96.9012,VALID,0,VALID,19.5063,VALID,14,VALID,0.009375,
2010-09-05, 01:06:04,VALID,918.203,VALID,0,VALID,96.8707,VALID,0,VALID,19.4868,VALID,14,VALID,0.828516,
2010-09-05, 01:07:04,VALID,918.222,VALID,0,VALID,96.8479,VALID,0,VALID,19.4673,VALID,14,VALID,0.812891,
2010-09-05, 01:08:04,VALID,918.202,VALID,0,VALID,96.8479,VALID,0,VALID,19.4673,VALID,14,VALID,0.658203,
2010-09-05, 01:09:04,VALID,918.188,VALID,0,VALID,96.8479,VALID,0.107441,VALID,19.4478,VALID,14,VALID,0.753906,
2010-09-05, 01:10:04,VALID,918.175,VALID,0,VALID,96.8479,VALID,0.107441,VALID,19.4088,VALID,14,VALID,0.660547,
2010-09-05, 01:11:04,VALID,918.144,VALID,0,VALID,96.8707,VALID,0,VALID,19.4298,VALID,14,VALID,0.877734,
2010-09-05, 01:12:04,VALID,918.147,VALID,0,VALID,96.8784,VALID,0,VALID,19.3893,VALID,14,VALID,0.659375,
2010-09-05, 01:13:04,VALID,918.149,VALID,0,VALID,96.8707,VALID,0,VALID,19.3908,VALID,95,VALID,0.774609,
2010-09-05, 01:14:04,VALID,918.116,VALID,0,VALID,96.886,VALID,0,VALID,19.3503,VALID,114,VALID,0.80625,
2010-09-05, 01:15:04,VALID,918.112,VALID,0,VALID,96.8936,VALID,0,VALID,19.3518,VALID,114,VALID,0.809766,
2010-09-05, 01:16:04,VALID,918.07,VALID,0,VALID,96.9317,VALID,0,VALID,19.3503,VALID,114,VALID,0.713281,
2010-09-05, 01:17:04,VALID,918.042,VALID,0,VALID,96.9165,VALID,0,VALID,19.3128,VALID,114,VALID,1.11289,
2010-09-05, 01:18:04,VALID,918.086,VALID,0,VALID,96.9394,VALID,0,VALID,19.3518,VALID,114,VALID,0.582031,
2010-09-05, 01:19:04,VALID,918.023,VALID,0,VALID,96.9622,VALID,0,VALID,19.3323,VALID,114,VALID,1.08203,
2010-09-05, 01:20:04,VALID,918.056,VALID,0,VALID,97.008,VALID,0,VALID,19.3503,VALID,114,VALID,0.918359,
2010-09-05, 01:21:04,VALID,918.051,VALID,0,VALID,97.0308,VALID,0,VALID,19.3518,VALID,119,VALID,1.02578,
2010-09-05, 01:22:04,VALID,918.046,VALID,0,VALID,97.0156,VALID,0,VALID,19.3518,VALID,132,VALID,0.8625,
2010-09-05, 01:23:04,VALID,918.05,VALID,0,VALID,97.0003,VALID,0,VALID,19.3128,VALID,132,VALID,0.808984,
2010-09-05, 01:24:04,VALID,918.075,VALID,0,VALID,97.0156,VALID,0,VALID,19.3128,VALID,144,VALID,0.942187,
2010-09-05, 01:25:04,VALID,918.048,VALID,0,VALID,97.0308,VALID,0,VALID,19.3308,VALID,153,VALID,1.26484,
2010-09-05, 01:26:04,VALID,918.049,VALID,0,VALID,97.0461,VALID,0,VALID,19.3308,VALID,153,VALID,1.05742,
2010-09-05, 01:27:04,VALID,918.016,VALID,0,VALID,97.0537,VALID,0,VALID,19.3698,VALID,118,VALID,0.551172,
2010-09-05, 01:28:04,VALID,917.995,VALID,0,VALID,97.0613,VALID,0,VALID,19.3698,VALID,146,VALID,1.18203,
2010-09-05, 01:29:04,VALID,917.975,VALID,0,VALID,97.0613,VALID,0,VALID,19.3908,VALID,162,VALID,1.25273,
2010-09-05, 01:30:04,VALID,917.93,VALID,0,VALID,97.0918,VALID,0,VALID,19.4103,VALID,135,VALID,1.24219,
2010-09-05, 01:31:04,VALID,917.903,VALID,0,VALID,97.0613,VALID,0,VALID,19.4103,VALID,156,VALID,1.11836,
2010-09-05, 01:32:04,VALID,917.883,VALID,0,VALID,97.0766,VALID,0,VALID,19.3893,VALID,133,VALID,0.451562,
2010-09-05, 01:33:04,VALID,917.826,VALID,0,VALID,97.0766,VALID,0,VALID,19.3893,VALID,128,VALID,0.589844,
2010-09-05, 01:34:04,VALID,917.83,VALID,0,VALID,97.069,VALID,0,VALID,19.4103,VALID,130,VALID,1.36328,
2010-09-05, 01:35:04,VALID,917.826,VALID,0,VALID,97.069,VALID,0,VALID,19.3893,VALID,133,VALID,1.24648,
2010-09-05, 01:36:04,VALID,917.812,VALID,0,VALID,97.0613,VALID,0,VALID,19.3893,VALID,133,VALID,0.69375,
2010-09-05, 01:37:04,VALID,917.821,VALID,0,VALID,97.0537,VALID,0,VALID,19.3908,VALID,135,VALID,1.48086,
2010-09-05, 01:38:04,VALID,917.82,VALID,0,VALID,97.0461,VALID,0,VALID,19.4103,VALID,140,VALID,1.34492,
2010-09-05, 01:39:04,VALID,917.844,VALID,0,VALID,97.0613,VALID,0,VALID,19.4103,VALID,151,VALID,1.14102,
2010-09-05, 01:40:04,VALID,917.818,VALID,0,VALID,97.0842,VALID,0,VALID,19.4283,VALID,153,VALID,1.37188,
2010-09-05, 01:41:04,VALID,917.808,VALID,0,VALID,97.0842,VALID,0,VALID,19.4478,VALID,179,VALID,1.70898,
2010-09-05, 01:42:04,VALID,917.803,VALID,0,VALID,97.069,VALID,0,VALID,19.4673,VALID,148,VALID,1.17422,
2010-09-05, 01:43:04,VALID,917.789,VALID,0,VALID,97.0766,VALID,0,VALID,19.4688,VALID,163,VALID,1.17891,
2010-09-05, 01:44:04,VALID,917.799,VALID,0,VALID,97.0613,VALID,0,VALID,19.4883,VALID,175,VALID,1.71211,
2010-09-05, 01:45:04,VALID,917.761,VALID,0,VALID,97.0613,VALID,0,VALID,19.4493,VALID,139,VALID,1.38203,
2010-09-05, 01:46:04,VALID,917.717,VALID,0,VALID,97.0461,VALID,0,VALID,19.5078,VALID,106,VALID,0.805078,
2010-09-05, 01:47:04,VALID,917.675,VALID,0,VALID,97.0613,VALID,0,VALID,19.4688,VALID,131,VALID,1.37344,
2010-09-05, 01:48:04,VALID,917.672,VALID,0,VALID,97.0308,VALID,0,VALID,19.4883,VALID,114,VALID,1.12891,
2010-09-05, 01:49:04,VALID,917.646,VALID,0,VALID,97.0308,VALID,0,VALID,19.4883,VALID,166,VALID,1.35938,
2010-09-05, 01:50:04,VALID,917.605,VALID,0,VALID,97.0385,VALID,0,VALID,19.4673,VALID,145,VALID,0.951172,
2010-09-05, 01:51:04,VALID,917.594,VALID,0,VALID,97.0385,VALID,0,VALID,19.4673,VALID,119,VALID,0.915625,
2010-09-05, 01:52:04,VALID,917.541,VALID,0,VALID,97.0232,VALID,0,VALID,19.4493,VALID,183,VALID,1.06484,
2010-09-05, 01:53:04,VALID,917.556,VALID,0,VALID,97.0232,VALID,0,VALID,19.4883,VALID,156,VALID,0.923828,
2010-09-05, 01:54:04,VALID,917.537,VALID,0,VALID,97.0308,VALID,0,VALID,19.4883,VALID,164,VALID,1.33867,
2010-09-05, 01:55:04,VALID,917.543,VALID,0,VALID,97.0156,VALID,0,VALID,19.4673,VALID,171,VALID,1.01133,
2010-09-05, 01:56:04,VALID,917.508,VALID,0,VALID,97.0003,VALID,0.107441,VALID,19.4853,VALID,171,VALID,0.944141,
2010-09-05, 01:57:04,VALID,917.467,VALID,0,VALID,96.9546,VALID,0.107441,VALID,19.4853,VALID,157,VALID,1.83516,
2010-09-05, 01:58:04,VALID,917.491,VALID,0,VALID,96.9241,VALID,0.107441,VALID,19.4463,VALID,143,VALID,1.59883,
2010-09-05, 01:59:04,VALID,917.495,VALID,0,VALID,96.9317,VALID,0.107441,VALID,19.4658,VALID,156,VALID,1.67383,
2010-09-05, 02:00:04,VALID,917.497,VALID,0,VALID,96.9089,VALID,0.107441,VALID,19.4463,VALID,147,VALID,1.53867,
2010-09-05, 02:01:04,VALID,917.512,VALID,0,VALID,96.886,VALID,0.107441,VALID,19.4658,VALID,138,VALID,1.46211,
2010-09-05, 02:02:04,VALID,917.488,VALID,0,VALID,96.8555,VALID,0.107441,VALID,19.5048,VALID,137,VALID,1.01094,
2010-09-05, 02:03:04,VALID,917.48,VALID,0,VALID,96.8174,VALID,0,VALID,19.4868,VALID,160,VALID,1.30547,
2010-09-05, 02:04:04,VALID,917.478,VALID,0,VALID,96.8098,VALID,0.214882,VALID,19.4658,VALID,157,VALID,0.982422,
2010-09-05, 02:05:04,VALID,917.463,VALID,0,VALID,96.764,VALID,0.107441,VALID,19.4463,VALID,156,VALID,1.50391,
2010-09-05, 02:06:04,VALID,917.442,VALID,0,VALID,96.7183,VALID,0.107441,VALID,19.4853,VALID,155,VALID,1.07695,
2010-09-05, 02:07:04,VALID,917.422,VALID,0,VALID,96.6649,VALID,0.107441,VALID,19.5063,VALID,137,VALID,1.64961,
2010-09-05, 02:08:04,VALID,917.406,VALID,0,VALID,96.6268,VALID,0.107441,VALID,19.4868,VALID,135,VALID,1.28086,
2010-09-05, 02:09:04,VALID,917.406,VALID,0,VALID,96.5963,VALID,0.107441,VALID,19.4658,VALID,143,VALID,1.14727,
2010-09-05, 02:10:04,VALID,917.401,VALID,0,VALID,96.6039,VALID,0.107441,VALID,19.4853,VALID,172,VALID,1.10156,
2010-09-05, 02:11:04,VALID,917.357,VALID,0,VALID,96.5582,VALID,0,VALID,19.4493,VALID,145,VALID,1.63281,
2010-09-05, 02:12:04,VALID,917.337,VALID,0,VALID,96.5429,VALID,0,VALID,19.4283,VALID,142,VALID,1.42344,
2010-09-05, 02:13:04,VALID,917.315,VALID,0,VALID,96.5353,VALID,0,VALID,19.4478,VALID,147,VALID,0.997656,
2010-09-05, 02:14:04,VALID,917.303,VALID,0,VALID,96.5048,VALID,0,VALID,19.4493,VALID,147,VALID,1.23438,
2010-09-05, 02:15:04,VALID,917.292,VALID,0,VALID,96.5201,VALID,0,VALID,19.4283,VALID,167,VALID,0.732422,
2010-09-05, 02:16:04,VALID,917.269,VALID,0,VALID,96.5353,VALID,0,VALID,19.4478,VALID,157,VALID,1.29844,
2010-09-05, 02:17:04,VALID,917.284,VALID,0,VALID,96.5201,VALID,0,VALID,19.4478,VALID,154,VALID,1.05898,
2010-09-05, 02:18:04,VALID,917.23,VALID,0,VALID,96.5277,VALID,0,VALID,19.4298,VALID,164,VALID,1.35742,
2010-09-05, 02:19:04,VALID,917.215,VALID,0,VALID,96.5506,VALID,0,VALID,19.4493,VALID,162,VALID,0.875,
2010-09-05, 02:20:04,VALID,917.208,VALID,0,VALID,96.5277,VALID,0,VALID,19.4298,VALID,138,VALID,1.3082,
2010-09-05, 02:21:04,VALID,917.202,VALID,0,VALID,96.5658,VALID,0,VALID,19.4493,VALID,142,VALID,1.07734,
2010-09-05, 02:22:04,VALID,917.203,VALID,0,VALID,96.5353,VALID,0,VALID,19.3893,VALID,131,VALID,1.43789,
2010-09-05, 02:23:04,VALID,917.211,VALID,0,VALID,96.5277,VALID,0,VALID,19.4088,VALID,128,VALID,0.880859,
2010-09-05, 02:24:04,VALID,917.156,VALID,0,VALID,96.5124,VALID,0,VALID,19.4103,VALID,135,VALID,1.28437,
2010-09-05, 02:25:04,VALID,917.162,VALID,0,VALID,96.4972,VALID,0,VALID,19.3893,VALID,133,VALID,1.69961,
2010-09-05, 02:26:04,VALID,917.18,VALID,0,VALID,96.4743,VALID,0,VALID,19.4103,VALID,129,VALID,0.865234,
2010-09-05, 02:27:04,VALID,917.171,VALID,0,VALID,96.4133,VALID,0,VALID,19.4298,VALID,115,VALID,1.07031,
2010-09-05, 02:28:04,VALID,917.169,VALID,0,VALID,96.36,VALID,0,VALID,19.4298,VALID,121,VALID,1.26133,
2010-09-05, 02:29:04,VALID,917.16,VALID,0,VALID,96.3219,VALID,0,VALID,19.4298,VALID,132,VALID,1.11719,
2010-09-05, 02:30:04,VALID,917.181,VALID,0,VALID,96.2914,VALID,0,VALID,19.4298,VALID,135,VALID,1.09648,
2010-09-05, 02:31:04,VALID,917.19,VALID,0,VALID,96.2685,VALID,0,VALID,19.3893,VALID,146,VALID,1.10703,
2010-09-05, 02:32:04,VALID,917.198,VALID,0,VALID,96.2228,VALID,0,VALID,19.4088,VALID,143,VALID,1.30859,
2010-09-05, 02:33:04,VALID,917.2,VALID,0,VALID,96.1999,VALID,0,VALID,19.4088,VALID,142,VALID,1.71211,
2010-09-05, 02:34:04,VALID,917.217,VALID,0,VALID,96.177,VALID,0,VALID,19.4298,VALID,127,VALID,1.70547,
2010-09-05, 02:35:04,VALID,917.205,VALID,0,VALID,96.1618,VALID,0,VALID,19.4103,VALID,151,VALID,1.30898,
2010-09-05, 02:36:04,VALID,917.16,VALID,0,VALID,96.1694,VALID,0,VALID,19.4283,VALID,131,VALID,1.66562,
2010-09-05, 02:37:04,VALID,917.185,VALID,0,VALID,96.1389,VALID,0,VALID,19.4298,VALID,115,VALID,2.50898,
2010-09-05, 02:38:04,VALID,917.172,VALID,0,VALID,96.1008,VALID,0,VALID,19.4298,VALID,122,VALID,1.75586,
2010-09-05, 02:39:04,VALID,917.188,VALID,0,VALID,96.0855,VALID,0,VALID,19.4688,VALID,145,VALID,1.39063,
2010-09-05, 02:40:04,VALID,917.17,VALID,0,VALID,96.0779,VALID,0,VALID,19.4298,VALID,122,VALID,1.63672,
2010-09-05, 02:41:04,VALID,917.131,VALID,0,VALID,96.0398,VALID,0,VALID,19.4688,VALID,125,VALID,1.05547,
2010-09-05, 02:42:04,VALID,917.114,VALID,0,VALID,96.0245,VALID,0,VALID,19.4688,VALID,130,VALID,1.45469,
2010-09-05, 02:43:04,VALID,917.107,VALID,0,VALID,96.0169,VALID,0,VALID,19.4298,VALID,141,VALID,1.36133,
2010-09-05, 02:44:04,VALID,917.064,VALID,0,VALID,96.0169,VALID,0,VALID,19.4493,VALID,139,VALID,1.34727,
2010-09-05, 02:45:04,VALID,917.047,VALID,0,VALID,96.0093,VALID,0,VALID,19.4493,VALID,137,VALID,1.01602,
2010-09-05, 02:46:04,VALID,917.019,VALID,0,VALID,95.9941,VALID,0,VALID,19.4103,VALID,125,VALID,1.64453,
2010-09-05, 02:47:04,VALID,916.986,VALID,0,VALID,95.9559,VALID,0,VALID,19.4103,VALID,130,VALID,1.24414,
2010-09-05, 02:48:04,VALID,917.009,VALID,0,VALID,95.9407,VALID,0,VALID,19.4298,VALID,130,VALID,1.11406,
2010-09-05, 02:49:04,VALID,916.976,VALID,0,VALID,95.8797,VALID,0,VALID,19.4298,VALID,133,VALID,1.83398,
2010-09-05, 02:50:04,VALID,916.969,VALID,0,VALID,95.8416,VALID,0,VALID,19.4298,VALID,108,VALID,2.1707,
2010-09-05, 02:51:04,VALID,916.968,VALID,0,VALID,95.712,VALID,0,VALID,19.4298,VALID,118,VALID,1.23594,
2010-09-05, 02:52:04,VALID,916.919,VALID,0,VALID,95.6434,VALID,0,VALID,19.4478,VALID,121,VALID,1.22969,
2010-09-05, 02:53:04,VALID,916.911,VALID,0,VALID,95.6053,VALID,0,VALID,19.4493,VALID,129,VALID,1.58867,
2010-09-05, 02:54:04,VALID,916.876,VALID,0,VALID,95.6053,VALID,0,VALID,19.4493,VALID,131,VALID,1.37109,
2010-09-05, 02:55:04,VALID,916.894,VALID,0,VALID,95.59,VALID,0,VALID,19.4088,VALID,138,VALID,1.81914,
2010-09-05, 02:56:04,VALID,916.876,VALID,0,VALID,95.5519,VALID,0,VALID,19.4298,VALID,142,VALID,1.63516,
2010-09-05, 02:57:04,VALID,916.901,VALID,0,VALID,95.5062,VALID,0,VALID,19.4298,VALID,121,VALID,1.1375,
2010-09-05, 02:58:04,VALID,916.879,VALID,0,VALID,95.4985,VALID,0,VALID,19.4103,VALID,127,VALID,0.951172,
2010-09-05, 02:59:04,VALID,916.851,VALID,0,VALID,95.4528,VALID,0,VALID,19.4493,VALID,123,VALID,1.71641,
2010-09-05, 03:00:04,VALID,916.843,VALID,0,VALID,95.3994,VALID,0,VALID,19.4688,VALID,123,VALID,1.15039,
2010-09-05, 03:01:04,VALID,916.859,VALID,0,VALID,95.3766,VALID,0,VALID,19.4493,VALID,140,VALID,1.4207,
2010-09-05, 03:02:04,VALID,916.846,VALID,0,VALID,95.3384,VALID,0,VALID,19.4298,VALID,126,VALID,1.21641,
2010-09-05, 03:03:04,VALID,916.861,VALID,0,VALID,95.3384,VALID,0,VALID,19.4298,VALID,132,VALID,1.05508,
2010-09-05, 03:04:04,VALID,916.85,VALID,0,VALID,95.3156,VALID,0,VALID,19.4298,VALID,135,VALID,1.21328,
2010-09-05, 03:05:04,VALID,916.852,VALID,0,VALID,95.2775,VALID,0,VALID,19.4298,VALID,134,VALID,1.59258,
2010-09-05, 03:06:04,VALID,916.818,VALID,0,VALID,95.2165,VALID,0,VALID,19.4493,VALID,126,VALID,1.4043,
2010-09-05, 03:07:04,VALID,916.838,VALID,0,VALID,95.1479,VALID,0,VALID,19.4298,VALID,126,VALID,1.35664,
2010-09-05, 03:08:04,VALID,916.82,VALID,0,VALID,95.0869,VALID,0,VALID,19.4493,VALID,137,VALID,1.53789,
2010-09-05, 03:09:04,VALID,916.828,VALID,0,VALID,95.0564,VALID,0,VALID,19.4493,VALID,128,VALID,1.48438,
2010-09-05, 03:10:04,VALID,916.847,VALID,0,VALID,95.0335,VALID,0,VALID,19.4493,VALID,139,VALID,1.47578,
2010-09-05, 03:11:04,VALID,916.83,VALID,0,VALID,95.0106,VALID,0,VALID,19.4478,VALID,142,VALID,1.3375,
2010-09-05, 03:12:04,VALID,916.85,VALID,0,VALID,94.9954,VALID,0.107441,VALID,19.4478,VALID,124,VALID,1.05586,
2010-09-05, 03:13:04,VALID,916.794,VALID,0,VALID,94.9801,VALID,0,VALID,19.4478,VALID,139,VALID,1.36406,
2010-09-05, 03:14:04,VALID,916.8,VALID,0,VALID,95.0106,VALID,0,VALID,19.4283,VALID,139,VALID,1.39063,
2010-09-05, 03:15:04,VALID,916.822,VALID,0,VALID,95.0792,VALID,0.107441,VALID,19.4088,VALID,136,VALID,1.41172,
2010-09-05, 03:16:04,VALID,916.839,VALID,0,VALID,95.125,VALID,0,VALID,19.4088,VALID,140,VALID,1.45078,
2010-09-05, 03:17:04,VALID,916.834,VALID,0,VALID,95.1479,VALID,0.107441,VALID,19.4088,VALID,153,VALID,1.21328,
2010-09-05, 03:18:04,VALID,916.872,VALID,0,VALID,95.1402,VALID,0.107441,VALID,19.3893,VALID,137,VALID,1.4293,
2010-09-05, 03:19:04,VALID,916.856,VALID,0,VALID,95.1326,VALID,0,VALID,19.3893,VALID,131,VALID,1.58281,
2010-09-05, 03:20:04,VALID,916.87,VALID,0,VALID,95.0945,VALID,0.107441,VALID,19.3893,VALID,144,VALID,1.67891,
2010-09-05, 03:21:04,VALID,916.852,VALID,0,VALID,95.0945,VALID,0,VALID,19.3893,VALID,134,VALID,1.09609,
2010-09-05, 03:22:04,VALID,916.892,VALID,0,VALID,95.0945,VALID,0,VALID,19.3893,VALID,130,VALID,0.973828,
2010-09-05, 03:23:04,VALID,916.851,VALID,0,VALID,95.0564,VALID,0.107441,VALID,19.3893,VALID,130,VALID,1.21211,
2010-09-05, 03:24:04,VALID,916.889,VALID,0,VALID,95.064,VALID,0,VALID,19.4103,VALID,129,VALID,0.914453,
2010-09-05, 03:25:04,VALID,916.903,VALID,0,VALID,95.064,VALID,0,VALID,19.4103,VALID,125,VALID,1.19141,
2010-09-05, 03:26:04,VALID,916.88,VALID,0,VALID,95.0564,VALID,0,VALID,19.3908,VALID,125,VALID,0.549219,
2010-09-05, 03:27:04,VALID,916.882,VALID,0,VALID,95.0945,VALID,0,VALID,19.3713,VALID,125,VALID,1.2668,
2010-09-05, 03:28:04,VALID,916.881,VALID,0,VALID,95.1326,VALID,0,VALID,19.3908,VALID,125,VALID,0.726953,
2010-09-05, 03:29:04,VALID,916.876,VALID,0,VALID,95.1326,VALID,0,VALID,19.3713,VALID,125,VALID,1.02383,
2010-09-05, 03:30:04,VALID,916.885,VALID,0,VALID,95.1707,VALID,0,VALID,19.3713,VALID,124,VALID,1.42305,
2010-09-05, 03:31:04,VALID,916.847,VALID,0,VALID,95.1707,VALID,0,VALID,19.3713,VALID,124,VALID,1.03633,
2010-09-05, 03:32:04,VALID,916.855,VALID,0,VALID,95.2393,VALID,0,VALID,19.3518,VALID,124,VALID,1.32266,
2010-09-05, 03:33:04,VALID,916.889,VALID,0,VALID,95.2698,VALID,0,VALID,19.3323,VALID,123,VALID,1.07578,
2010-09-05, 03:34:04,VALID,916.882,VALID,0,VALID,95.3308,VALID,0,VALID,19.3113,VALID,124,VALID,1.20156,
2010-09-05, 03:35:04,VALID,916.877,VALID,0,VALID,95.3994,VALID,0,VALID,19.3128,VALID,123,VALID,0.971875,
2010-09-05, 03:36:04,VALID,916.884,VALID,0,VALID,95.4757,VALID,0,VALID,19.3338,VALID,123,VALID,0.940234,
2010-09-05, 03:37:04,VALID,916.874,VALID,0,VALID,95.4833,VALID,0,VALID,19.2933,VALID,105,VALID,0.873438,
2010-09-05, 03:38:04,VALID,916.87,VALID,0,VALID,95.5443,VALID,0,VALID,19.2933,VALID,105,VALID,0.990234,
2010-09-05, 03:39:04,VALID,916.873,VALID,0,VALID,95.5824,VALID,0,VALID,19.2933,VALID,104,VALID,0.729688,
2010-09-05, 03:40:04,VALID,916.867,VALID,0,VALID,95.6357,VALID,0,VALID,19.2753,VALID,104,VALID,0.132031,
2010-09-05, 03:41:04,VALID,916.875,VALID,0,VALID,95.6815,VALID,0.107441,VALID,19.2528,VALID,105,VALID,0.476563,
2010-09-05, 03:42:04,VALID,916.894,VALID,0,VALID,95.7425,VALID,0,VALID,19.2933,VALID,105,VALID,0.0121094,
2010-09-05, 03:43:04,VALID,916.861,VALID,0,VALID,95.7577,VALID,0,VALID,19.2528,VALID,105,VALID,0.335156,